[TLELIST] Archives

 

[TLELIST] Current TLEs

April 26th 2025 PST

HST 1 20580U 90037B 25116.08579939 .00010688 00000-0 41187-3 0 9996 2 20580 28.4689 37.9217 0001989 236.7746 123.2658 15.24661028724987 ISS (ZARYA) 1 25544U 98067A 25116.17377446 .00026680 00000-0 48575-3 0 9998 2 25544 51.6374 204.6652 0002397 79.3170 4.4179 15.49294231507097 CXO 1 25867U 99040B 25116.54559048 .00000821 00000-0 00000-0 0 9996 2 25867 48.3596 132.2511 8505568 308.5720 0.1181 0.37809910 15758 ...Continue Reading

[TLELIST] Current TLEs

April 26th 2025 PST

HST 1 20580U 90037B 25116.08579939 .00010688 00000-0 41187-3 0 9996 2 20580 28.4689 37.9217 0001989 236.7746 123.2658 15.24661028724987 ISS (ZARYA) 1 25544U 98067A 25116.17377446 .00026680 00000-0 48575-3 0 9998 2 25544 51.6374 204.6652 0002397 79.3170 4.4179 15.49294231507097 CXO 1 25867U 99040B 25116.54559048 .00000821 00000-0 00000-0 0 9996 2 25867 48.3596 132.2511 8505568 308.5720 0.1181 0.37809910 15758 ...Continue Reading

[TLELIST] Current TLEs

April 25th 2025 PST

HST 1 20580U 90037B 25114.97302514 .00011359 00000-0 43850-3 0 9990 2 20580 28.4686 45.4568 0002003 223.3430 136.7007 15.24637457724815 ISS (ZARYA) 1 25544U 98067A 25115.19123301 .00019954 00000-0 36627-3 0 9999 2 25544 51.6367 209.5298 0002336 82.7408 277.3846 15.49244896506941 CXO 1 25867U 99040B 25116.54559048 .00000821 00000-0 00000-0 0 9996 2 25867 48.3596 132.2511 8505568 308.5720 0.1181 0.37809910 15758 ...Continue Reading

[TLELIST] Current TLEs

April 25th 2025 PST

HST 1 20580U 90037B 25114.97302514 .00011359 00000-0 43850-3 0 9990 2 20580 28.4686 45.4568 0002003 223.3430 136.7007 15.24637457724815 ISS (ZARYA) 1 25544U 98067A 25115.19123301 .00019954 00000-0 36627-3 0 9999 2 25544 51.6367 209.5298 0002336 82.7408 277.3846 15.49244896506941 CXO 1 25867U 99040B 25116.54559048 .00000821 00000-0 00000-0 0 9996 2 25867 48.3596 132.2511 8505568 308.5720 0.1181 0.37809910 15758 ...Continue Reading

[TLELIST] Current TLEs

April 24th 2025 PST

HST 1 20580U 90037B 25113.92569162 .00009818 00000-0 37826-3 0 9991 2 20580 28.4683 52.5468 0002073 210.5540 149.4933 15.24613025724394 ISS (ZARYA) 1 25544U 98067A 25114.24122616 -.00347094 00000-0 -65384-2 0 9994 2 25544 51.6351 214.2454 0002566 101.5255 356.7242 15.49158740506793 CXO 1 25867U 99040B 25116.54559048 .00000821 00000-0 00000-0 0 9996 2 25867 48.3596 132.2511 8505568 308.5720 0.1181 0.37809910 15758 ...Continue Reading

[TLELIST] Current TLEs

April 23rd 2025 PST

HST 1 20580U 90037B 25112.94380361 .00010002 00000-0 38572-3 0 9990 2 20580 28.4682 59.1969 0001813 199.1762 160.8764 15.24593795724245 ISS (ZARYA) 1 25544U 98067A 25112.83104192 .00022666 00000-0 40580-3 0 9991 2 25544 51.6380 221.2117 0005698 66.6769 78.6517 15.49861426506572 CXO 1 25867U 99040B 25113.90655150 .00000969 00000-0 00000-0 0 9997 2 25867 48.2708 132.4403 8506107 308.4906 0.8416 0.37805197 15738 ...Continue Reading

[TLELIST] Current TLEs

April 23rd 2025 PST

HST 1 20580U 90037B 25112.94380361 .00010002 00000-0 38572-3 0 9990 2 20580 28.4682 59.1969 0001813 199.1762 160.8764 15.24593795724245 ISS (ZARYA) 1 25544U 98067A 25112.83104192 .00022666 00000-0 40580-3 0 9991 2 25544 51.6380 221.2117 0005698 66.6769 78.6517 15.49861426506572 CXO 1 25867U 99040B 25113.90655150 .00000969 00000-0 00000-0 0 9997 2 25867 48.2708 132.4403 8506107 308.4906 0.8416 0.37805197 15738 ...Continue Reading

[TLELIST] Current TLEs

April 22nd 2025 PST

HST 1 20580U 90037B 25112.09282277 .00011093 00000-0 42882-3 0 9993 2 20580 28.4680 64.9590 0001892 189.6854 170.3704 15.24578373724379 ISS (ZARYA) 1 25544U 98067A 25112.17080330 .00022189 00000-0 39790-3 0 9996 2 25544 51.6375 224.4804 0005669 64.4286 354.6967 15.49829303506475 CXO 1 25867U 99040B 25113.90655150 .00000969 00000-0 00000-0 0 9997 2 25867 48.2708 132.4403 8506107 308.4906 0.8416 0.37805197 15738 ...Continue Reading

[TLELIST] Current TLEs

April 21st 2025 PST

HST 1 20580U 90037B 25110.12898456 .00010160 00000-0 39258-3 0 9994 2 20580 28.4676 78.2549 0002049 167.9889 192.0754 15.24538580723818 ISS (ZARYA) 1 25544U 98067A 25111.19301809 .00019709 00000-0 35505-3 0 9998 2 25544 51.6358 229.3307 0005376 59.9494 300.2027 15.49781560506323 CXO 1 25867U 99040B 25111.25672861 .00001023 00000-0 00000+0 0 9992 2 25867 48.2098 132.5741 8508591 308.4643 0.0367 0.37803149 26883 ...Continue Reading

[TLELIST] Current TLEs

April 20th 2025 PST

HST 1 20580U 90037B 25110.12898456 .00010160 00000-0 39258-3 0 9994 2 20580 28.4676 78.2549 0002049 167.9886 192.0757 15.24538580724077 ISS (ZARYA) 1 25544U 98067A 25110.16128250 .00020673 00000-0 37255-3 0 9997 2 25544 51.6357 234.4401 0005344 57.5764 302.5741 15.49736990506160 CXO 1 25867U 99040B 25111.25672861 .00001023 00000-0 00000+0 0 9992 2 25867 48.2098 132.5741 8508591 308.4643 0.0367 0.37803149 26883 ...Continue Reading
  • This mailing list is a public mailing list - anyone may join or leave, at any time.
  • This mailing list is announce-only.

International Space Station (ISS) / Hubble Space Telescope (HST) / Chandra X-Ray Observatory Orbital Data via EMAIL

Privacy Policy:

Private list